Notices

What's New in latest Release from April 7th, 2021:

- Updated Glossary, including Speed of Maximum Gust, and Total Hourly Precipitation

- Updated national and regional climate services offices contacts and prices information

- Addition of station inventory lists for 1981-2010, 1971-2000, and 1961-1990 Normals.

If you haven't already, please take our survey and provide feedback about our website: https://eccc.sondage-survey.ca/f/LanguageSelection.aspx?s=442ca660-fcf1-47c0-95a9-59707d6fd709

Hourly Data Report for April 08, 2018

MIRAMICHI RCS
NEW BRUNSWICK
Current Station Operator: ECCC - MSC

47°00'34.000" N
65°27'54.000" W
33.00 m
8100989
71744
ACQ

Download Data

Hourly Data (April 2018)
Hourly Data Report for April 8, 2018
TIME
LST
Temp Definition
°C
Dew Point Definition
°C
Rel Hum Definition
%
Precip. Amount Definition
mm

Wind Dir Definition
10's deg

Wind Spd Definition
km/h
Visibility Definition
km
Stn Press Definition
kPa
Hmdx Definition


Wind Chill Definition


Weather Definition


00:00 -2.3 -2.7 97 0.0 24 8   100.43   -5 LegendNANA
01:00 -2.1 -2.5 97 0.0 15 3   100.43   -3 LegendNANA
02:00 -1.6 -2.6 93 0.0 24 6   100.44   -4 LegendNANA
03:00 -1.6 -2.7 92 0.0 24 12   100.47   -6 LegendNANA
04:00 -2.7 -3.7 93 0.0 21 6   100.47   -5 LegendNANA
05:00 -4.2 -5.3 92 0.0 24 7   100.49   -7 LegendNANA
06:00 -3.5 -4.2 95 0.0 23 10   100.52   -7 LegendNANA
07:00 -4.2 -5.1 93 0.0 23 9   100.55   -8 LegendNANA
08:00 -3.5 -4.8 90 0.0 24 7   100.56   -6 LegendNANA
09:00 -1.8 -4.7 81 0.0 27 8   100.53   -5 LegendNANA
10:00 -0.3 -4.6 73 0.0 29 9   100.58   -3 LegendNANA
11:00 0.6 -4.8 67 0.0 28 9   100.56     LegendNANA
12:00 1.2 -5.2 62 0.0 29 8   100.49     LegendNANA
13:00 2.0 -5.6 57 0.0 32 7   100.41     LegendNANA
14:00 2.4 -7.0 50 0.0 30 11   100.28     LegendNANA
15:00 2.5 -7.6 48 0.0 31 12   100.19     LegendNANA
16:00 2.7 -8.4 44 0.0 33 11   100.14     LegendNANA
17:00 1.9 -5.9 56 0.0 1 10   100.15     LegendNANA
18:00 0.3 -4.3 71 0.0 6 13   100.15     LegendNANA
19:00 -0.9 -4.6 76 0.0 3 5   100.14   -3 LegendNANA
20:00 -1.4 -4.2 81 0.0 35 3   100.13   -2 LegendNANA
21:00 -0.3 -10.5 46 0.0 35 11   100.12   -4 LegendNANA
22:00 -1.1 -7.1 63 0.0 1 11   100.08   -5 LegendNANA
23:00 -1.9 -6.5 71 0.0 33 11   100.13   -6 LegendNANA

Notes on Data Quality.

Legend

  • E = Estimated
  • M = Missing
  • NA = Not Available*
  • [empty] = Indicates an unobserved value
Date modified: